Location: Unspecified
(47.9110°N, 14.3980°E)
Time: 05:15:01
(UTC+00:00)

Spot 2 Rocket - Pass Details

Date: 06 August 2020
Orbit: 756 x 773 km, 98.6° (Epoch: 19 September)

Event Time Altitude Azimuth Distance (km) Brightness Sun altitude
Exits shadow 19:45:42 14° 151° (SSE) 2,076 5.2 -11.4°
Maximum altitude 19:50:09 66° 71° (ENE) 846 3.6 -12.0°
Drops below altitude 10° 19:55:13 10° 351° (N) 2,324 6.8 -12.6°
Sets 19:57:33 0° 349° (NNW) 3,253 7.7 -12.9°
